M I D A S
Marine Information and Data Acquisition System
Tripno 444 of the Zeeleeuw from 2003-03-11 07:39:54 to 2003-03-11 13:04:54
Back to CruiseResearch ActivitiesStationsMapUnderway DataData graphs

EquipmentUnitsComments
TimeDGPSUTC
LatitudeDGPSDM.mWGS84
LongitudeDGPSDM.mWGS84
SpeedMeteo Stationm/sRelative wind speed
DirectionMeteo StationdegRelative wind direction
TemperatureMeteo Stationdeg CelciusAir temperature
PressureMeteo StationPaAtmospheric pressure
HumidityMeteo Station%Relative humidity
Missing or incorrect values are displayed as -999
Metereological data collected by the RV Zeeleeuw from 2003-03-11 07:39:54 to 2003-03-11 13:04:54
Time Latitude Longitude Speed Direction Temperature Pressure Humidity
2003-03-11 07:41 51°13.603 2°56.052 5.3 221 10.3 101440 89
2003-03-11 07:42 51°13.637 2°55.932 4.2 179 10.3 101440 89
2003-03-11 07:43 51°13.681 2°55.809 5.7 223 10.3 101440 89
2003-03-11 07:43 51°13.698 2°55.755 3 234 10.3 101440 89
2003-03-11 07:44 51°13.706 2°55.759 3.2 155 10.3 101440 89
2003-03-11 07:45 51°13.699 2°55.736 1.2 15 10.4 101440 89
2003-03-11 07:46 51°13.743 2°55.707 3.5 25 10.4 101450 89
2003-03-11 07:47 51°13.839 2°55.62 2.3 346 10.4 101450 89
2003-03-11 07:48 51°13.953 2°55.529 5.2 31 10.4 101440 89
2003-03-11 07:49 51°14.068 2°55.439 6.7 40 10.4 101450 89
2003-03-11 07:50 51°14.187 2°55.346 7.5 133 10.4 101450 89
2003-03-11 07:51 51°14.279 2°55.231 10.4 38 10.2 101450 88
2003-03-11 07:52 51°14.369 2°55.044 13.1 42 10 101420 87
2003-03-11 07:53 51°14.43 2°54.817 13 17 9.7 101410 87
2003-03-11 07:54 51°14.413 2°54.593 13.4 2 9.5 101410 87
2003-03-11 07:55 51°14.374 2°54.489 12.1 340 9.4 101420 87
2003-03-11 07:56 51°14.334 2°54.46 10.5 318 9.3 101420 87
2003-03-11 07:57 51°14.304 2°54.45 9.7 326 9.2 101420 88
2003-03-11 07:58 51°14.279 2°54.431 11 346 9.1 101420 88
2003-03-11 07:59 51°14.265 2°54.396 9.8 10 9.1 101430 88
2003-03-11 08:00 51°14.253 2°54.324 12.3 356 9.1 101430 88
2003-03-11 08:01 51°14.173 2°54.098 14.7 355 9 101410 88
2003-03-11 08:02 51°14.078 2°53.833 14.8 356 9 101410 89
2003-03-11 08:03 51°13.979 2°53.558 14.5 357 9 101410 89
2003-03-11 08:04 51°13.882 2°53.287 15.2   9 101410 89
2003-03-11 08:05 51°13.782 2°53.005 15.1 359 9 101390 89
2003-03-11 08:06 51°13.676 2°52.686 15.3 357 9.1 101440 89
2003-03-11 08:07 51°13.573 2°52.373 16.2 1 9.2 101430 89
2003-03-11 08:08 51°13.468 2°52.055 15.3   9.2 101430 89
2003-03-11 08:09 51°13.363 2°51.73 14.5   9.2 101430 89
2003-03-11 08:10 51°13.26 2°51.414 14.7 2 9.2 101420 89
2003-03-11 08:11 51°13.153 2°51.088 15.7 1 9.2 101420 89
2003-03-11 08:12 51°13.05 2°50.771 15 2 9.3 101420 90
2003-03-11 08:13 51°12.946 2°50.455 15.6 6 9.3 101420 89
2003-03-11 08:14 51°12.842 2°50.136 16.5 2 9.3 101410 90
2003-03-11 08:15 51°12.738 2°49.816 15.9 359 9.3 101420 89
2003-03-11 08:16 51°12.635 2°49.5 16.7 2 9.3 101420 89
2003-03-11 08:17 51°12.529 2°49.173 15.3 2 9.4 101410 90
2003-03-11 08:18 51°12.425 2°48.853 15.6 1 9.4 101410 89
2003-03-11 08:19 51°12.319 2°48.543 16.6 2 9.4 101410 90
2003-03-11 08:20 51°12.209 2°48.219 16.2 360 9.5 101410 89
2003-03-11 08:21 51°12.104 2°47.905 18.4 5 9.5 101420 89
2003-03-11 08:22 51°11.995 2°47.583 16.9 5 9.5 101410 90
2003-03-11 08:23 51°11.888 2°47.265 17 2 9.5 101420 89
2003-03-11 08:24 51°11.778 2°46.945 17.4 2 9.5 101410 89
2003-03-11 08:25 51°11.671 2°46.627 16.1 2 9.5 101410 89
2003-03-11 08:26 51°11.564 2°46.302 16.9 3 9.5 101410 89
2003-03-11 08:27 51°11.457 2°45.983 15.6 1 9.4 101410 89
2003-03-11 08:28 51°11.348 2°45.663 15.8 3 9.4 101410 89
2003-03-11 08:29 51°11.243 2°45.344 16.3 1 9.4 101420 90
2003-03-11 08:30 51°11.136 2°45.023 16.2 358 9.4 101430 89
2003-03-11 08:31 51°11.031 2°44.707 17.4 359 9.4 101420 90
2003-03-11 08:32 51°10.922 2°44.379 16.7 359 9.4 101420 90
2003-03-11 08:33 51°10.815 2°44.058 16.3 358 9.4 101420 90
2003-03-11 08:34 51°10.71 2°43.737 17.6 358 9.4 101420 90
2003-03-11 08:35 51°10.671 2°43.386 15.7 22 9.4 101420 90
2003-03-11 08:36 51°10.699 2°43.023 15.3 22 9.3 101420 90
2003-03-11 08:37 51°10.735 2°42.658 14.3 22 9.3 101410 90
2003-03-11 08:38 51°10.764 2°42.288 15.5 25 9.3 101420 90
2003-03-11 08:39 51°10.803 2°41.926 15 21 9.2 101420 90
2003-03-11 08:40 51°10.842 2°41.567 15.4 22 9.2 101420 90
2003-03-11 08:41 51°10.866 2°41.207 17.2 9 9.2 101430 90
2003-03-11 08:42 51°10.778 2°40.878 16.1 351 9.2 101440 90
2003-03-11 08:43 51°10.606 2°40.658 16.3 337 9.2 101440 90
2003-03-11 08:44 51°10.406 2°40.485 16 340 9.1 101450 90
2003-03-11 08:45 51°10.208 2°40.306 15.4 340 9.2 101450 90
2003-03-11 08:46 51°10.011 2°40.124 16.4 337 9.2 101440 90
2003-03-11 08:47 51°9.819 2°39.93 16.2 351 9.2 101440 91
2003-03-11 08:48 51°9.742 2°39.604 15.7 22 9.2 101450 91
2003-03-11 08:49 51°9.807 2°39.255 14.3 36 9.3 101440 90
2003-03-11 08:50 51°9.922 2°38.937 13.8 35 9.3 101440 90
2003-03-11 08:51 51°10.04 2°38.616 13.1 33 9.2 101440 90
2003-03-11 08:52 51°10.169 2°38.305 13.3 34 9.2 101440 90
2003-03-11 08:53 51°10.234 2°37.964 15 10 9.1 101440 90
2003-03-11 08:54 51°10.131 2°37.649 16.7 353 9.1 101450 90
2003-03-11 08:55 51°9.967 2°37.395 15 347 9.1 101460 91
2003-03-11 08:56 51°9.802 2°37.142 16.1 348 9.2 101460 91
2003-03-11 08:57 51°9.638 2°36.887 15.8 350 9.2 101460 90
2003-03-11 08:58 51°9.474 2°36.629 14.9 348 9.1 101460 90
2003-03-11 08:59 51°9.309 2°36.37 16.3 350 9.2 101460 91
2003-03-11 09:00 51°9.146 2°36.108 17.1 355 9.2 101460 91
2003-03-11 09:01 51°9.092 2°35.768 14.8 31 9.3 101440 90
2003-03-11 09:02 51°9.258 2°35.546 9.9 68 9.3 101430 90
2003-03-11 09:03 51°9.483 2°35.46 9.5 62 9.2 101440 90
2003-03-11 09:04 51°9.707 2°35.363 8.9 58 9.2 101440 90
2003-03-11 09:05 51°9.929 2°35.268 8.4 60 9.2 101440 90
2003-03-11 09:06 51°10.158 2°35.2 6.9 69 9.1 101440 90
2003-03-11 09:07 51°10.367 2°35.343 1.5 106 9.1 101460 90
2003-03-11 09:08 51°10.541 2°35.581 0.9 99 9 101460 90
2003-03-11 09:09 51°10.704 2°35.838 0.5 91 9 101450 90
2003-03-11 09:10 51°10.864 2°36.093 1 93 9 101450 90
2003-03-11 09:11 51°11.028 2°36.357 1.3 87 8.9 101450 90
2003-03-11 09:12 51°11.189 2°36.618 0.7 174 8.9 101440 90
2003-03-11 09:13 51°11.349 2°36.876 0.9 284 9 101440 90
2003-03-11 09:14 51°11.51 2°37.136 1.1 128 9 101440 90
2003-03-11 09:15 51°11.671 2°37.395 1.8 132 9 101450 90
2003-03-11 09:16 51°11.83 2°37.656 1.4 107 9 101450 90
2003-03-11 09:17 51°11.99 2°37.917 1 108 9 101450 90
2003-03-11 09:18 51°12.15 2°38.174 2.6 133 9 101450 90
2003-03-11 09:19 51°12.31 2°38.429 3.4 121 8.9 101440 90
2003-03-11 09:20 51°12.493 2°38.637 6.5 91 8.9 101440 90
2003-03-11 09:21 51°12.704 2°38.78 6.8 86 8.9 101440 91
2003-03-11 09:22 51°12.92 2°38.903 7.3 83 8.9 101440 91
2003-03-11 09:23 51°13.138 2°39.022 7.2 77 8.9 101430 91
2003-03-11 09:24 51°13.357 2°39.139 6.4 69 8.8 101440 91
2003-03-11 09:25 51°13.577 2°39.257 6.1 79 8.7 101430 91
2003-03-11 09:26 51°13.793 2°39.374 6.6 88 8.7 101440 91
2003-03-11 09:27 51°14.016 2°39.447 8.6 63 8.6 101430 91
2003-03-11 09:28 51°14.236 2°39.395 12.6 51 8.6 101410 91
2003-03-11 09:29 51°14.405 2°39.145 14.7 33 8.6 101400 91
2003-03-11 09:30 51°14.522 2°38.829 15.9 19 8.6 101400 91
2003-03-11 09:31 51°14.505 2°38.472 17.2 358 8.6 101420 91
2003-03-11 09:32 51°14.429 2°38.122 17.5 357 8.7 101430 91
2003-03-11 09:33 51°14.347 2°37.782 16.4 356 8.7 101420 91
2003-03-11 09:34 51°14.261 2°37.425 16.5 355 8.6 101430 91
2003-03-11 09:35 51°14.177 2°37.074 15.9 355 8.6 101420 91
2003-03-11 09:36 51°14.095 2°36.723 17.3 357 8.5 101430 91
2003-03-11 09:37 51°14.013 2°36.371 17 356 8.5 101430 91
2003-03-11 09:38 51°13.931 2°36.024 15.6 357 8.4 101430 91
2003-03-11 09:39 51°13.849 2°35.673 14.9 4 8.5 101430 92
2003-03-11 09:40 51°13.893 2°35.327 12.4 40 8.5 101410 92
2003-03-11 09:41 51°14.095 2°35.178 8.9 58 8.4 101410 92
2003-03-11 09:42 51°14.331 2°35.156 8.6 70 8.4 101430 92
2003-03-11 09:43 51°14.564 2°35.152 8.1 68 8.4 101420 92
2003-03-11 09:44 51°14.795 2°35.154 8.6 66 8.4 101420 92
2003-03-11 09:45 51°15.026 2°35.154 7.5 69 8.4 101420 92
2003-03-11 09:46 51°15.254 2°35.131 11.2 49 8.4 101410 92
2003-03-11 09:47 51°15.347 2°34.847 15.9 7 8.4 101390 92
2003-03-11 09:48 51°15.258 2°34.586 16.2 342 8.4 101410 92
2003-03-11 09:49 51°15.114 2°34.385 14.9 346 8.4 101400 92
2003-03-11 09:50 51°14.971 2°34.171 16 341 8.4 101420 92
2003-03-11 09:51 51°14.821 2°33.981 15.6 339 8.4 101390 91
2003-03-11 09:52 51°14.675 2°33.785 15.1 338 8.4 101390 91
2003-03-11 09:53 51°14.523 2°33.602 15.3 340 8.5 101410 91
2003-03-11 09:54 51°14.371 2°33.42 15.5 339 8.5 101420 91
2003-03-11 09:55 51°14.216 2°33.23 14.5 339 8.4 101410 91
2003-03-11 09:56 51°14.062 2°33.043 14.9 343 8.4 101420 91
2003-03-11 09:57 51°13.909 2°32.855 15.9 337 8.4 101410 91
2003-03-11 09:58 51°13.755 2°32.668 16.2 338 8.4 101430 91
2003-03-11 09:59 51°13.591 2°32.468 16.8 337 8.5 101410 91
2003-03-11 10:00 51°13.403 2°32.252 17 336 8.5 101360 91
2003-03-11 10:01 51°13.211 2°32.041 18.1 337 8.5 101400 91
2003-03-11 10:02 51°13.017 2°31.848 17.5 335 8.5 101400 91
2003-03-11 10:03 51°12.81 2°31.659 16.7 336 8.5 101410 91
2003-03-11 10:04 51°12.605 2°31.49 15.8 332 8.5 101410 91
2003-03-11 10:05 51°12.395 2°31.323 16.1 333 8.5 101400 91
2003-03-11 10:06 51°12.182 2°31.164 15.8 336 8.5 101370 91
2003-03-11 10:07 51°11.97 2°31.004 13.6 331 8.5 101410 91
2003-03-11 10:08 51°11.766 2°30.824 15.3 342 8.4 101410 91
2003-03-11 10:09 51°11.619 2°30.538 16 357 8.5 101420 91
2003-03-11 10:10 51°11.534 2°30.184 15 2 8.4 101420 91
2003-03-11 10:11 51°11.468 2°29.818 15.7 4 8.4 101410 91
2003-03-11 10:12 51°11.406 2°29.452 14.2 4 8.4 101410 91
2003-03-11 10:13 51°11.345 2°29.078 14.9 5 8.4 101410 91
2003-03-11 10:14 51°11.287 2°28.705 14.9 6 8.4 101410 91
2003-03-11 10:15 51°11.228 2°28.321 14.1 2 8.3 101410 91
2003-03-11 10:16 51°11.17 2°27.948 14.3 5 8.3 101400 91
2003-03-11 10:17 51°11.115 2°27.565 14.8 8 8.3 101390 91
2003-03-11 10:18 51°11.058 2°27.178 14 4 8.3 101400 91
2003-03-11 10:19 51°11.003 2°26.796 13.5 8 8.3 101390 91
2003-03-11 10:20 51°10.947 2°26.416 14.9 7 8.3 101390 92
2003-03-11 10:21 51°10.892 2°26.035 14 6 8.3 101390 92
2003-03-11 10:22 51°10.837 2°25.655 14.5 9 8.4 101400 92
2003-03-11 10:23 51°10.843 2°25.271 13.4 20 8.4 101390 92
2003-03-11 10:24 51°10.976 2°24.96 11.5 46 8.4 101380 92
2003-03-11 10:25 51°11.189 2°24.841 9.5 67 8.3 101390 92
2003-03-11 10:26 51°11.423 2°24.818 9.2 65 8.3 101400 92
2003-03-11 10:27 51°11.652 2°24.789 8 65 8.3 101400 92
2003-03-11 10:28 51°11.882 2°24.764 7.4 65 8.3 101410 92
2003-03-11 10:29 51°12.111 2°24.745 7.7 57 8.3 101410 92
2003-03-11 10:30 51°12.34 2°24.725 6.7 60 8.3 101410 92
2003-03-11 10:31 51°12.57 2°24.705 8.6 71 8.3 101410 92
2003-03-11 10:32 51°12.798 2°24.7 5.9 82 8.3 101410 92
2003-03-11 10:33 51°12.997 2°24.854 2.9 124 8.3 101420 92
2003-03-11 10:34 51°13.139 2°25.129 2.9 205 8.3 101420 92
2003-03-11 10:35 51°13.246 2°25.442 1.7 195 8.3 101420 92
2003-03-11 10:36 51°13.351 2°25.756 1.5 229 8.3 101410 92
2003-03-11 10:37 51°13.45 2°26.078 2.4 232 8.3 101410 92
2003-03-11 10:38 51°13.548 2°26.404 2.7 209 8.3 101420 92
2003-03-11 10:39 51°13.638 2°26.729 2.5 228 8.3 101410 93
2003-03-11 10:40 51°13.734 2°27.047 2.5 230 8.3 101420 93
2003-03-11 10:41 51°13.823 2°27.364 4.6 200 8.3 101410 93
2003-03-11 10:42 51°13.913 2°27.689 3.5 248 8.3 101410 93
2003-03-11 10:43 51°14.001 2°28.019 3.1 221 8.3 101410 93
2003-03-11 10:44 51°14.124 2°28.306 3.3 113 8.3 101410 93
2003-03-11 10:45 51°14.334 2°28.378 8.3 70 8.3 101400 93
2003-03-11 10:46 51°14.56 2°28.336 9 75 8.3 101390 93
2003-03-11 10:47 51°14.787 2°28.309 8.8 73 8.3 101400 93
2003-03-11 10:48 51°15.015 2°28.294 8.5 69 8.2 101390 93
2003-03-11 10:49 51°15.242 2°28.285 9.8 79 8.2 101390 93
2003-03-11 10:50 51°15.469 2°28.275 8.9 75 8.2 101390 93
2003-03-11 10:51 51°15.699 2°28.258 8.6 80 8.2 101380 93
2003-03-11 10:52 51°15.928 2°28.243 8.8 72 8.1 101380 93
2003-03-11 10:53 51°16.158 2°28.232 8.7 77 8.1 101380 93
2003-03-11 10:54 51°16.362 2°28.344 2.4 185 8.1 101380 93
2003-03-11 10:55 51°16.461 2°28.654 3.2 241 8.1 101380 93
2003-03-11 10:56 51°16.517 2°29.002 3.7 236 8.1 101380 93
2003-03-11 10:57 51°16.586 2°29.348 3.3 214 8.1 101380 93
2003-03-11 10:59 51°16.654 2°29.701 3.9 233 8.1 101370 93
2003-03-11 11:00 51°16.716 2°30.036 2.8 246 8.1 101370 93
2003-03-11 11:01 51°16.792 2°30.381 4 228 8.1 101370 93
2003-03-11 11:02 51°16.893 2°30.841 4.4 224 8.1 101380 93
2003-03-11 11:03 51°16.967 2°31.172 3 234 8.1 101380 93
2003-03-11 11:04 51°17.037 2°31.503 5 135 8.1 101380 93
2003-03-11 11:05 51°17.121 2°31.85 3.3 221 8.1 101380 93
2003-03-11 11:06 51°17.202 2°32.175 3.5 208 8.1 101380 93
2003-03-11 11:07 51°17.282 2°32.508 3.9 215 8.1 101380 93
2003-03-11 11:08 51°17.366 2°32.835 4.7 199 8.1 101380 93
2003-03-11 11:09 51°17.504 2°33.097 3.6 95 8.1 101380 93
2003-03-11 11:10 51°17.709 2°33.22 6.2 84 8.1 101370 93
2003-03-11 11:11 51°17.931 2°33.221 9.1 61 8.1 101370 93
2003-03-11 11:12 51°18.153 2°33.125 11.4 67 8 101350 93
2003-03-11 11:13 51°18.373 2°33.028 10.7 68 8 101360 93
2003-03-11 11:14 51°18.596 2°32.932 9.9 68 8 101330 93
2003-03-11 11:15 51°18.82 2°32.838 10.8 66 8 101340 93
2003-03-11 11:16 51°19.039 2°32.736 8.1 62 8 101330 93
2003-03-11 11:17 51°19.257 2°32.63 10.9 66 8 101340 93
2003-03-11 11:18 51°19.469 2°32.518 9.2 62 8 101330 93
2003-03-11 11:19 51°19.684 2°32.405 9.9 67 7.9 101330 93
2003-03-11 11:20 51°19.906 2°32.287 10.9 67 7.9 101320 93
2003-03-11 11:21 51°20.128 2°32.24 4.6 103 7.9 101350 93
2003-03-11 11:22 51°20.319 2°32.412 1.1 162 7.9 101350 93
2003-03-11 11:23 51°20.452 2°32.689 2.9 218 8 101350 93
2003-03-11 11:24 51°20.518 2°33.023 4.6 241 7.9 101340 93
2003-03-11 11:25 51°20.581 2°33.348 3.4 244 7.9 101350 93
2003-03-11 11:26 51°20.646 2°33.689 5.4 237 7.9 101350 93
2003-03-11 11:27 51°20.712 2°34.02 4.3 244 7.9 101350 93
2003-03-11 11:28 51°20.78 2°34.351 3.5 243 7.8 101350 93
2003-03-11 11:29 51°20.854 2°34.683 3.6 242 7.8 101350 93
2003-03-11 11:30 51°20.925 2°35.014 3.8 226 7.8 101350 93
2003-03-11 11:31 51°20.979 2°35.345 7.4 253 7.8 101350 93
2003-03-11 11:32 51°20.917 2°35.679 12.6 272 7.8 101330 93
2003-03-11 11:33 51°20.763 2°35.941 13 290 7.8 101320 93
2003-03-11 11:34 51°20.588 2°36.164 13.6 298 7.8 101310 93
2003-03-11 11:35 51°20.409 2°36.377 12.7 295 7.8 101310 93
2003-03-11 11:36 51°20.226 2°36.594 12.8 293 7.8 101320 93
2003-03-11 11:37 51°20.04 2°36.817 12 292 7.9 101310 94
2003-03-11 11:38 51°19.863 2°37.033 11.4 291 7.9 101320 94
2003-03-11 11:39 51°19.68 2°37.259 11.9 290 7.9 101320 94
2003-03-11 11:40 51°19.522 2°37.503 8.8 268 7.9 101320 94
2003-03-11 11:41 51°19.527 2°37.844 1.9 193 7.9 101360 94
2003-03-11 11:42 51°19.667 2°38.095 2.7 125 7.9 101370 94
2003-03-11 11:43 51°19.821 2°38.328 1.9 135 7.9 101370 94
2003-03-11 11:44 51°19.973 2°38.595 2 135 7.9 101370 94
2003-03-11 11:45 51°20.11 2°38.868 1.3 178 7.9 101370 94
2003-03-11 11:46 51°20.25 2°39.142 2 148 8 101370 94
2003-03-11 11:47 51°20.388 2°39.417 2 148 8 101370 94
2003-03-11 11:48 51°20.526 2°39.683 0.9 160 8 101370 94
2003-03-11 11:49 51°20.658 2°39.976 2.4 150 8 101370 94
2003-03-11 11:50 51°20.792 2°40.269 3.6 228 8.1 101370 94
2003-03-11 11:51 51°20.816 2°40.604 8.6 259 8 101350 94
2003-03-11 11:52 51°20.723 2°40.925 10 277 8 101340 94
2003-03-11 11:53 51°20.547 2°41.147 14.9 300 7.9 101320 93
2003-03-11 11:54 51°20.332 2°41.259 15.2 307 7.9 101320 93
2003-03-11 11:55 51°20.111 2°41.371 13.9 307 7.9 101320 93
2003-03-11 11:56 51°19.887 2°41.485 13.7 308 7.8 101320 93
2003-03-11 11:57 51°19.667 2°41.605 12.3 305 7.8 101310 93
2003-03-11 11:58 51°19.453 2°41.749 13.6 303 7.8 101320 93
2003-03-11 11:59 51°19.297 2°41.989 6.9 278 7.8 101330 93
2003-03-11 12:00 51°19.325 2°42.321 1 224 7.8 101350 93
2003-03-11 12:01 51°19.455 2°42.6 0.4 310 7.8 101350 93
2003-03-11 12:02 51°19.59 2°42.879 0.7 340 7.8 101350 93
2003-03-11 12:03 51°19.725 2°43.165 1.7 237 7.8 101350 93
2003-03-11 12:04 51°19.848 2°43.448 0.8 244 7.8 101350 93
2003-03-11 12:05 51°19.971 2°43.734 1.1 263 7.8 101340 93
2003-03-11 12:06 51°20.1 2°44.022 1.1 225 7.8 101350 93
2003-03-11 12:07 51°20.214 2°44.326 2.1 253 7.8 101340 93
2003-03-11 12:08 51°20.303 2°44.646 3 258 7.8 101340 93
2003-03-11 12:09 51°20.34 2°44.985 4.5 258 7.7 101340 93
2003-03-11 12:10 51°20.362 2°45.335 5 272 7.7 101340 93
2003-03-11 12:11 51°20.37 2°45.686 5.2 277 7.7 101340 93
2003-03-11 12:12 51°20.373 2°46.027 4.8 268 7.7 101340 93
2003-03-11 12:13 51°20.371 2°46.383 5.3 265 7.7 101340 93
2003-03-11 12:14 51°20.374 2°46.73 5.4 268 7.7 101340 94
2003-03-11 12:15 51°20.368 2°47.08 5.9 272 7.7 101330 94
2003-03-11 12:16 51°20.354 2°47.434 6.2 271 7.7 101330 94
2003-03-11 12:17 51°20.342 2°47.786 6.2 270 7.8 101330 94
2003-03-11 12:18 51°20.245 2°48.084 11.2 306 7.8 101320 94
2003-03-11 12:19 51°20.022 2°48.164 13.6 320 7.8 101310 94
2003-03-11 12:20 51°19.785 2°48.201 14.6 320 7.8 101310 94
2003-03-11 12:21 51°19.548 2°48.239 15.2 318 7.8 101310 94
2003-03-11 12:22 51°19.307 2°48.282 14.2 318 7.9 101300 94
2003-03-11 12:23 51°19.073 2°48.327 13.7 317 7.9 101310 94
2003-03-11 12:24 51°18.917 2°48.529 5.5 264 7.9 101320 94
2003-03-11 12:25 51°18.948 2°48.864 2.9 254 7.9 101340 94
2003-03-11 12:26 51°18.996 2°49.208 3.9 264 8 101350 94
2003-03-11 12:27 51°19.04 2°49.555 3.4 257 7.9 101350 94
2003-03-11 12:28 51°19.071 2°49.906 4.9 267 7.9 101340 94
2003-03-11 12:29 51°19.089 2°50.269 5.1 258 8 101350 94
2003-03-11 12:30 51°19.077 2°50.604 10 277 7.9 101350 94
2003-03-11 12:31 51°18.884 2°50.761 13.9 318 7.9 101330 94
2003-03-11 12:32 51°18.646 2°50.766 13.8 321 8 101330 94
2003-03-11 12:33 51°18.406 2°50.771 13.9 321 8 101330 94
2003-03-11 12:34 51°18.228 2°50.94 6.6 259 8 101330 94
2003-03-11 12:35 51°18.219 2°51.286 4.5 253 8 101360 94
2003-03-11 12:36 51°18.221 2°51.64 4.3 261 8 101360 94
2003-03-11 12:37 51°18.218 2°51.995 5 267 8 101360 94
2003-03-11 12:38 51°18.123 2°52.307 10.7 294 8 101340 94
2003-03-11 12:39 51°17.898 2°52.381 13.7 314 8.1 101320 94
2003-03-11 12:40 51°17.659 2°52.399 13.7 315 8.1 101330 94
2003-03-11 12:41 51°17.415 2°52.417 13.5 320 8.1 101330 94
2003-03-11 12:42 51°17.179 2°52.432 12.4 321 8.1 101340 94
2003-03-11 12:43 51°16.938 2°52.466 11.9 312 8.1 101340 93
2003-03-11 12:44 51°16.719 2°52.592 11.5 304 8.1 101340 94
2003-03-11 12:45 51°16.512 2°52.779 10.8 301 8.2 101340 94
2003-03-11 12:46 51°16.315 2°52.984 10.4 291 8.2 101340 94
2003-03-11 12:47 51°16.146 2°53.143 8.5 281 8.2 101350 94
2003-03-11 12:48 51°16.048 2°53.198 6.9 282 8.2 101350 93
2003-03-11 12:49 51°16.025 2°53.191 6.9 284 8.2 101350 93
2003-03-11 12:50 51°16.019 2°53.187 7 266 8.2 101340 93
2003-03-11 12:51 51°16.011 2°53.185 8.8 256 8.2 101350 93
2003-03-11 12:52 51°16.001 2°53.184 8 253 8.2 101350 93
2003-03-11 12:53 51°15.989 2°53.183 8.1 253 8.2 101350 93
2003-03-11 12:54 51°15.978 2°53.182 9 258 8.2 101350 93
2003-03-11 12:55 51°15.958 2°53.184 8.7 274 8.3 101340 93
2003-03-11 12:56 51°15.819 2°53.305 8.1 291 8.2 101330 93
2003-03-11 12:57 51°15.646 2°53.496 8.9 293 8.2 101330 93
2003-03-11 12:58 51°15.475 2°53.696 7.3 285 8.2 101330 93
2003-03-11 12:59 51°15.307 2°53.906 8.6 291 8.2 101330 93
2003-03-11 13:00 51°15.135 2°54.114 7.4 293 8.2 101330 93
2003-03-11 13:01 51°14.969 2°54.316 8.1 294 8.1 101330 93
2003-03-11 13:02 51°14.793 2°54.534 7.2 295 8.1 101340 93
2003-03-11 13:03 51°14.629 2°54.738 6.9 292 8.1 101340 93
2003-03-11 13:04 51°14.477 2°54.936 5.8 282 8.2 101340 93